Showing default

ABS 6 (LMI 1), 25924

Orbit data source: Space-Track

ABS 6 (LMI 1), 25924 is an Emirian payload satellite in GEO that was launched on Sun, 26 Sep 1999 UTC via a PROTON-K/DM-2M launch vehicle from the Tyuratam Missile And Space Complex (TTMTR). Payload-class satellites include a variety of spacecraft equipped with specific instruments for various scientific and technological missions. These include communications satellites like Starlink; space stations such as the ISS; scientific satellites like the Hubble; Earth observation satellites from companies like Planet Labs, Umbra, and HawkEye 360; GPS; miniature CubeSats for education and research; and military/defense satellites.

Not visible in the next 10 days
Identifier
25924, 1999-053A
Orbit
GEO
Country
Flag of AEAE / ABS
Related business
Manufacturer
LMCSS
Mission
Operational Commercial Communications
Bus & Motor
A2100, LEROS 1C
Mass
3,740 kg wet, 1,730 kg dry
Launch date (UTC)
1999-09-26 (27 years ago)
Launch vehicle
PROTON-K/DM-2M
Launch site
Tyuratam Missile And Space Complex (TTMTR)
Object type
Payload
Rocket body
Debris
Shape & HBR
Box + 2 Pan, 10.5 m
Radar Cross Section
18.290 m², Large (>1 m²)

Expand to show TLE details & history
Last TLE update: 12 hours ago

TLE from 12 hours ago
0 ABS 6 (LMI 1)
1 25924U 99053A   26257.89175395 -.00000126  00000-0  00000-0 0  9997
2 25924   0.0224 237.3162 0001678 257.2793 339.3070  1.00272590 98742
Epoch: 2026-09-14T21:24Z
TLE epoch observation values (Epoch: 2026-09-14T21:24:07.541Z)
Latitude
-0.03143°
Longitude
158.99279°
Altitude
35,779.252 km
Speed
3.075 km/s
True Right ascension
07h 35m 33s
True Declination
0° 01' 53"
Sunlit
Object was in daylight at epoch
Visualization orbit readout
Latitude
Unknown
Longitude
Unknown
Altitude
Unknown
Speed
Unknown
Apparent Right ascension
Unknown
Apparent Declination
Unknown
Sunlit
N/A
Visualization observer readout
Local Sidereal Time
02:29:39
Azimuth
Unknown
Elevation
Unknown
Doppler factor
Unknown
Orbital elements
Apogee altitude
35,794.515 km
Perigee altitude
35,780.364 km
Semi-major axis
42,165.577 km
Eccentricity
0.00017
Inclination
0.0224°
RAAN
237.3162°
Arg. of periapsis
257.2793°
True anomaly
339.3002°
Mean anomaly
339.307°
Eccentric anomaly
339.3036°
Mean motion
0.25067 °/min
Orbital period
1,436.14 mins
BSTAR
0
Loading maneuver chart data...
Computing Atmospheric mass density...
Loading historical data...
Loading historical data...
Loading historical data...
Loading historical data...
Loading historical data...
Loading historical data...
Loading historical data...
Other satellites on launch #53 in the year 1999 (1999-09-26 UTC)

Documentation

Showing up to 5 results
|